| time (UTC) | temp F | wind direction | speed MPH | gust MPH | rain 1hr in | rain 24hr in | rain mn in | humidity % | barometer mb |
| 20260502161533 | 55 | 3 | 2.0 | 7.0 | 0.00 | 0.00 | 0.00 | 29 | 986.7 |
| 20260502161034 | 54 | 15 | 2.0 | 7.0 | 0.00 | 0.00 | 0.00 | 28 | 986.6 |
| 20260502161030 | 54 | 312 | 2.0 | 7.0 | 0.00 | 0.00 | 0.00 | 29 | 986.7 |
| 20260502152025 | 52 | 307 | 1.0 | 6.0 | 0.00 | 0.00 | 0.00 | 33 | 986.9 |
| 20260502151530 | 51 | 312 | 1.0 | 4.0 | 0.00 | 0.01 | 0.00 | 34 | 987.0 |
| 20260502151525 | 52 | 11 | 1.0 | 6.0 | 0.00 | 0.01 | 0.00 | 34 | 986.9 |
| 20260502150526 | 51 | 338 | 1.0 | 4.0 | 0.00 | 0.01 | 0.00 | 33 | 987.0 |
| 20260502130520 | 31 | 171 | 0.0 | 0.0 | 0.00 | 0.01 | 0.00 | 77 | 986.7 |
| 20260502123521 | 29 | 171 | 0.0 | 0.0 | 0.00 | 0.01 | 0.00 | 74 | 986.6 |
| 20260502123025 | 28 | 171 | 0.0 | 0.0 | 0.00 | 0.01 | 0.00 | 76 | 986.5 |
| 20260502123021 | 29 | 171 | 0.0 | 0.0 | 0.00 | 0.01 | 0.00 | 75 | 986.6 |
| 20260502122625 | 28 | 171 | 0.0 | 0.0 | 0.00 | 0.01 | 0.00 | 76 | 986.5 |
| 20260502121520 | 27 | 171 | 0.0 | 0.0 | 0.00 | 0.01 | 0.00 | 76 | 986.4 |
| 20260502121020 | 27 | 171 | 0.0 | 0.0 | 0.00 | 0.01 | 0.00 | 76 | 986.4 |
| 20260502120520 | 27 | 171 | 0.0 | 0.0 | 0.00 | 0.01 | 0.00 | 76 | 986.4 |
| 20260502115521 | 27 | 171 | 0.0 | 0.0 | 0.00 | 0.01 | 0.00 | 75 | 986.3 |
| 20260502115018 | 28 | 171 | 0.0 | 0.0 | 0.00 | 0.01 | 0.00 | 75 | 986.3 |
| 20260502114519 | 28 | 171 | 0.0 | 0.0 | 0.00 | 0.01 | 0.00 | 73 | 986.3 |
| 20260502114018 | 28 | 171 | 0.0 | 0.0 | 0.00 | 0.01 | 0.00 | 73 | 986.3 |
| 20260502113518 | 28 | 171 | 0.0 | 0.0 | 0.00 | 0.01 | 0.00 | 74 | 986.4 |
| 20260502113018 | 28 | 171 | 0.0 | 0.0 | 0.00 | 0.01 | 0.00 | 74 | 986.4 |
| 20260502112523 | 28 | 171 | 0.0 | 0.0 | 0.00 | 0.01 | 0.00 | 74 | 986.4 |
| 20260502112519 | 28 | 171 | 0.0 | 0.0 | 0.00 | 0.01 | 0.00 | 74 | 986.4 |
| 20260502112124 | 28 | 171 | 0.0 | 0.0 | 0.00 | 0.01 | 0.00 | 74 | 986.4 |
| 20260502111018 | 28 | 171 | 0.0 | 0.0 | 0.00 | 0.01 | 0.00 | 74 | 986.4 |
| 20260502110516 | 28 | 171 | 0.0 | 0.0 | 0.00 | 0.01 | 0.00 | 73 | 986.4 |
| 20260502110020 | 28 | 171 | 0.0 | 0.0 | 0.00 | 0.01 | 0.00 | 73 | 986.4 |
| 20260502110016 | 28 | 171 | 0.0 | 0.0 | 0.00 | 0.01 | 0.00 | 73 | 986.4 |
| 20260502105016 | 28 | 171 | 0.0 | 0.0 | 0.00 | 0.01 | 0.00 | 73 | 986.4 |
| 20260502104518 | 28 | 171 | 0.0 | 0.0 | 0.00 | 0.01 | 0.00 | 73 | 986.4 |
| 20260502104122 | 28 | 171 | 0.0 | 0.0 | 0.00 | 0.01 | 0.00 | 74 | 986.4 |
| 20260502104020 | 28 | 171 | 0.0 | 0.0 | 0.00 | 0.01 | 0.00 | 73 | 986.4 |
| 20260502104016 | 28 | 171 | 0.0 | 0.0 | 0.00 | 0.01 | 0.00 | 73 | 986.4 |
| 20260502102514 | 28 | 171 | 0.0 | 0.0 | 0.00 | 0.01 | 0.00 | 74 | 986.4 |
| 20260502102014 | 28 | 171 | 0.0 | 0.0 | 0.00 | 0.01 | 0.00 | 73 | 986.4 |
| 20260502101516 | 29 | 171 | 0.0 | 0.0 | 0.00 | 0.01 | 0.00 | 72 | 986.3 |
| 20260502101512 | 28 | 171 | 0.0 | 0.0 | 0.00 | 0.01 | 0.00 | 72 | 986.3 |
| 20260502100513 | 29 | 171 | 0.0 | 0.0 | 0.00 | 0.01 | 0.00 | 73 | 986.3 |
| 20260502091508 | 30 | 171 | 0.0 | 0.0 | 0.00 | 0.01 | 0.00 | 71 | 986.0 |
| 20260502091008 | 30 | 171 | 0.0 | 0.0 | 0.00 | 0.01 | 0.00 | 71 | 986.0 |
| 20260502090508 | 30 | 171 | 0.0 | 0.0 | 0.00 | 0.01 | 0.00 | 70 | 985.9 |
| 20260502071504 | 31 | 174 | 0.0 | 0.0 | 0.00 | 0.01 | 0.00 | 70 | 986.4 |
| 20260502071004 | 31 | 174 | 0.0 | 0.0 | 0.00 | 0.01 | 0.00 | 70 | 986.4 |
| 20260502070502 | 31 | 174 | 0.0 | 0.0 | 0.00 | 0.01 | 0.00 | 71 | 986.4 |
| 20260502070001 | 31 | 181 | 0.0 | 0.0 | 0.00 | 0.01 | 0.00 | 71 | 986.5 |
| 20260502065502 | 31 | 191 | 0.0 | 0.0 | 0.00 | 0.01 | 0.00 | 71 | 986.5 |
| 20260502065002 | 31 | 190 | 0.0 | 1.0 | 0.00 | 0.01 | 0.00 | 70 | 986.5 |
| 20260502064502 | 31 | 143 | 0.0 | 1.0 | 0.00 | 0.01 | 0.00 | 70 | 986.5 |
| 20260502064002 | 31 | 138 | 0.0 | 0.0 | 0.00 | 0.01 | 0.00 | 70 | 986.5 |
| 20260502063502 | 31 | 138 | 0.0 | 0.0 | 0.00 | 0.02 | 0.00 | 69 | 986.6 |
| 20260502063001 | 31 | 138 | 0.0 | 0.0 | 0.00 | 0.02 | 0.00 | 68 | 986.5 |
| 20260502062502 | 32 | 138 | 0.0 | 0.0 | 0.00 | 0.02 | 0.00 | 68 | 986.5 |
| 20260502062000 | 32 | 138 | 0.0 | 0.0 | 0.00 | 0.02 | 0.00 | 68 | 986.5 |
| 20260502061458 | 32 | 138 | 0.0 | 0.0 | 0.00 | 0.03 | 0.00 | 69 | 986.5 |
| 20260502060958 | 32 | 138 | 0.0 | 0.0 | 0.00 | 0.03 | 0.00 | 70 | 986.4 |
| 20260502060456 | 32 | 138 | 0.0 | 0.0 | 0.00 | 0.03 | 0.00 | 70 | 986.5 |
| 20260502055957 | 32 | 138 | 0.0 | 0.0 | 0.00 | 0.03 | 0.03 | 69 | 986.5 |
| 20260502055453 | 32 | 138 | 0.0 | 0.0 | 0.00 | 0.03 | 0.03 | 68 | 986.5 |
| 20260502054950 | 32 | 138 | 0.0 | 0.0 | 0.00 | 0.04 | 0.03 | 67 | 986.5 |
| 20260502054454 | 33 | 133 | 0.0 | 0.0 | 0.00 | 0.04 | 0.03 | 68 | 986.3 |
| 20260502054448 | 32 | 138 | 0.0 | 1.0 | 0.00 | 0.04 | 0.03 | 67 | 986.5 |
| 20260502053948 | 33 | 138 | 0.0 | 1.0 | 0.00 | 0.04 | 0.03 | 68 | 986.4 |
| 20260502052946 | 33 | 143 | 0.0 | 0.0 | 0.00 | 0.05 | 0.03 | 68 | 986.4 |
| 20260502052447 | 33 | 143 | 0.0 | 0.0 | 0.00 | 0.05 | 0.03 | 70 | 986.3 |
| 20260502051947 | 33 | 171 | 0.0 | 0.0 | 0.00 | 0.05 | 0.03 | 68 | 986.3 |
| 20260502051446 | 33 | 190 | 0.0 | 0.0 | 0.00 | 0.05 | 0.03 | 67 | 986.3 |
| 20260502050947 | 33 | 190 | 0.0 | 0.0 | 0.00 | 0.05 | 0.03 | 68 | 986.3 |
| 20260502050447 | 33 | 190 | 0.0 | 0.0 | 0.00 | 0.05 | 0.03 | 67 | 986.3 |
| 20260502045946 | 33 | 190 | 0.0 | 0.0 | 0.00 | 0.05 | 0.03 | 67 | 986.1 |
| 20260502045446 | 33 | 190 | 0.0 | 0.0 | 0.00 | 0.05 | 0.03 | 66 | 986.3 |
| 20260502044946 | 34 | 224 | 0.0 | 0.0 | 0.00 | 0.05 | 0.03 | 66 | 986.3 |
| 20260502044446 | 34 | 224 | 0.0 | 0.0 | 0.00 | 0.05 | 0.03 | 66 | 986.3 |
| 20260502043946 | 34 | 147 | 0.0 | 0.0 | 0.00 | 0.05 | 0.03 | 65 | 986.0 |
| 20260502043446 | 34 | 166 | 0.0 | 0.0 | 0.00 | 0.05 | 0.03 | 63 | 986.0 |
| 20260502042946 | 35 | 166 | 0.0 | 0.0 | 0.00 | 0.05 | 0.03 | 63 | 986.0 |
| 20260502042446 | 35 | 150 | 0.0 | 0.0 | 0.00 | 0.05 | 0.03 | 61 | 985.9 |
| 20260502041947 | 35 | 150 | 0.0 | 0.0 | 0.00 | 0.05 | 0.03 | 59 | 985.8 |
| 20260502041451 | 36 | 150 | 0.0 | 0.0 | 0.00 | 0.05 | 0.03 | 57 | 985.8 |
| 20260502041446 | 36 | 150 | 0.0 | 0.0 | 0.00 | 0.05 | 0.03 | 58 | 985.8 |
| 20260502041053 | 36 | 150 | 0.0 | 0.0 | 0.00 | 0.05 | 0.03 | 57 | 985.8 |
| 20260502035946 | 37 | 150 | 0.0 | 0.0 | 0.00 | 0.05 | 0.03 | 56 | 985.8 |
| 20260502035451 | 37 | 150 | 0.0 | 0.0 | 0.00 | 0.05 | 0.03 | 54 | 985.6 |
| 20260502035446 | 37 | 150 | 0.0 | 0.0 | 0.00 | 0.05 | 0.03 | 55 | 985.7 |
| 20260502034446 | 38 | 150 | 0.0 | 0.0 | 0.00 | 0.05 | 0.03 | 52 | 985.6 |
| 20260502033945 | 38 | 149 | 0.0 | 0.0 | 0.00 | 0.05 | 0.03 | 52 | 985.6 |
| 20260502033446 | 38 | 156 | 0.0 | 0.0 | 0.00 | 0.05 | 0.03 | 54 | 985.4 |
| 20260502032946 | 38 | 158 | 0.0 | 0.0 | 0.00 | 0.05 | 0.03 | 56 | 985.3 |
| 20260502032446 | 38 | 157 | 0.0 | 0.0 | 0.00 | 0.05 | 0.03 | 56 | 985.2 |
| 20260502031946 | 38 | 157 | 0.0 | 0.0 | 0.00 | 0.05 | 0.03 | 54 | 985.2 |
| 20260502031446 | 38 | 207 | 0.0 | 1.0 | 0.00 | 0.05 | 0.03 | 51 | 985.2 |
| 20260502030946 | 39 | 215 | 0.0 | 1.0 | 0.00 | 0.05 | 0.03 | 51 | 985.2 |
| 20260502030445 | 39 | 159 | 0.0 | 0.0 | 0.00 | 0.05 | 0.03 | 50 | 985.1 |
| 20260502025946 | 40 | 159 | 0.0 | 0.0 | 0.00 | 0.05 | 0.03 | 50 | 985.0 |
| 20260502025446 | 41 | 159 | 0.0 | 0.0 | 0.00 | 0.05 | 0.03 | 47 | 985.0 |
| 20260502024949 | 41 | 159 | 0.0 | 0.0 | 0.00 | 0.05 | 0.03 | 46 | 984.8 |
| 20260502024945 | 42 | 159 | 0.0 | 1.0 | 0.00 | 0.05 | 0.03 | 47 | 984.7 |
| 20260502023944 | 43 | 155 | 0.0 | 1.0 | 0.00 | 0.05 | 0.03 | 44 | 984.7 |
| 20260502023444 | 44 | 150 | 0.0 | 1.0 | 0.00 | 0.05 | 0.03 | 42 | 984.6 |
| 20260502022946 | 45 | 134 | 0.0 | 1.0 | 0.00 | 0.05 | 0.03 | 38 | 984.5 |
| 20260502022444 | 45 | 193 | 0.0 | 0.0 | 0.00 | 0.05 | 0.03 | 36 | 984.5 |
| 20260502021942 | 45 | 193 | 0.0 | 0.0 | 0.00 | 0.05 | 0.03 | 36 | 984.4 |
| 20260502021444 | 46 | 211 | 0.0 | 0.0 | 0.00 | 0.05 | 0.03 | 35 | 984.3 |
| 20260502021440 | 46 | 193 | 0.0 | 0.0 | 0.00 | 0.05 | 0.03 | 37 | 984.4 |
| 20260502020440 | 47 | 290 | 0.0 | 0.0 | 0.00 | 0.05 | 0.03 | 35 | 984.3 |
| 20260502015941 | 47 | 290 | 0.0 | 0.0 | 0.00 | 0.05 | 0.03 | 31 | 984.3 |
| 20260502015441 | 48 | 290 | 0.0 | 0.0 | 0.00 | 0.05 | 0.03 | 31 | 984.3 |
| 20260502014944 | 49 | 290 | 0.0 | 0.0 | 0.00 | 0.05 | 0.03 | 28 | 984.1 |
| 20260502014940 | 49 | 290 | 0.0 | 0.0 | 0.00 | 0.05 | 0.03 | 29 | 984.1 |
| 20260502013940 | 50 | 290 | 0.0 | 0.0 | 0.00 | 0.05 | 0.03 | 28 | 984.1 |
| 20260502013445 | 51 | 309 | 0.0 | 5.0 | 0.00 | 0.05 | 0.03 | 27 | 984.0 |
| 20260502013440 | 51 | 253 | 0.0 | 0.0 | 0.00 | 0.05 | 0.03 | 26 | 984.0 |
| 20260502012439 | 51 | 313 | 0.0 | 5.0 | 0.00 | 0.05 | 0.03 | 25 | 984.0 |
| 20260502011937 | 52 | 4 | 0.0 | 2.0 | 0.00 | 0.05 | 0.03 | 25 | 983.9 |
| 20260502011439 | 52 | 322 | 0.0 | 4.0 | 0.00 | 0.05 | 0.03 | 22 | 983.9 |
| 20260502010943 | 53 | 327 | 1.0 | 5.0 | 0.00 | 0.05 | 0.03 | 22 | 983.8 |
| 20260502010938 | 52 | 15 | 1.0 | 5.0 | 0.00 | 0.05 | 0.03 | 23 | 983.8 |
| 20260502010438 | 53 | 352 | 1.0 | 5.0 | 0.00 | 0.05 | 0.03 | 22 | 983.8 |
| 20260502005438 | 53 | 338 | 2.0 | 5.0 | 0.00 | 0.05 | 0.03 | 22 | 983.8 |
| 20260502004938 | 54 | 319 | 2.0 | 5.0 | 0.00 | 0.05 | 0.03 | 22 | 983.8 |
| 20260502004438 | 54 | 21 | 3.0 | 8.0 | 0.00 | 0.05 | 0.03 | 21 | 983.8 |
| 20260502003938 | 55 | 316 | 2.0 | 8.0 | 0.00 | 0.05 | 0.03 | 21 | 983.9 |
| 20260502003436 | 57 | 9 | 1.0 | 8.0 | 0.00 | 0.05 | 0.03 | 21 | 983.8 |
| 20260502002936 | 57 | 270 | 0.0 | 3.0 | 0.00 | 0.05 | 0.03 | 23 | 983.8 |
| 20260502002436 | 56 | 354 | 1.0 | 3.0 | 0.00 | 0.05 | 0.03 | 22 | 983.8 |
| 20260502001938 | 56 | 316 | 2.0 | 7.0 | 0.00 | 0.05 | 0.03 | 23 | 983.8 |
| 20260502001437 | 55 | 349 | 3.0 | 8.0 | 0.00 | 0.05 | 0.03 | 23 | 983.8 |
| 20260502000943 | 55 | 328 | 4.0 | 8.0 | 0.00 | 0.05 | 0.03 | 23 | 983.8 |
| 20260502000436 | 55 | 333 | 3.0 | 9.0 | 0.00 | 0.05 | 0.03 | 24 | 983.7 |
| 20260501235934 | 55 | 13 | 2.0 | 9.0 | 0.00 | 0.05 | 0.03 | 22 | 983.7 |
| 20260501235434 | 55 | 329 | 1.0 | 6.0 | 0.00 | 0.05 | 0.03 | 27 | 983.5 |
| 20260501234934 | 55 | 331 | 2.0 | 6.0 | 0.00 | 0.05 | 0.03 | 25 | 983.5 |
| 20260501234432 | 55 | 359 | 3.0 | 7.0 | 0.00 | 0.05 | 0.03 | 25 | 983.5 |
| 20260501233932 | 55 | 356 | 4.0 | 16.0 | 0.00 | 0.05 | 0.03 | 26 | 983.5 |
| 20260501233432 | 55 | 2 | 4.0 | 16.0 | 0.00 | 0.05 | 0.03 | 26 | 983.5 |
| 20260501232931 | 55 | 7 | 3.0 | 10.0 | 0.00 | 0.05 | 0.03 | 26 | 983.5 |
| 20260501232432 | 55 | 335 | 3.0 | 10.0 | 0.00 | 0.05 | 0.03 | 26 | 983.5 |
| 20260501231931 | 55 | 274 | 3.0 | 10.0 | 0.00 | 0.05 | 0.03 | 25 | 983.4 |
| 20260501231432 | 56 | 348 | 2.0 | 10.0 | 0.00 | 0.05 | 0.03 | 24 | 983.4 |
| 20260501230932 | 55 | 29 | 2.0 | 7.0 | 0.00 | 0.05 | 0.03 | 25 | 983.4 |
| 20260501230432 | 54 | 345 | 4.0 | 11.0 | 0.00 | 0.05 | 0.03 | 26 | 983.5 |
| 20260501225930 | 54 | 323 | 4.0 | 11.0 | 0.00 | 0.06 | 0.03 | 26 | 983.4 |
| 20260501225429 | 54 | 331 | 3.0 | 9.0 | 0.00 | 0.06 | 0.03 | 29 | 983.4 |
| 20260501224930 | 54 | 323 | 4.0 | 9.0 | 0.00 | 0.06 | 0.03 | 28 | 983.5 |
| 20260501224434 | 55 | 328 | 2.0 | 7.0 | 0.00 | 0.06 | 0.03 | 28 | 983.3 |
| 20260501224430 | 55 | 322 | 2.0 | 8.0 | 0.00 | 0.06 | 0.03 | 27 | 983.4 |
| 20260501223430 | 55 | 299 | 2.0 | 8.0 | 0.00 | 0.06 | 0.03 | 28 | 983.3 |
| 20260501222934 | 55 | 13 | 3.0 | 10.0 | 0.00 | 0.07 | 0.03 | 28 | 983.4 |
| 20260501222930 | 54 | 14 | 2.0 | 8.0 | 0.00 | 0.07 | 0.03 | 29 | 983.3 |
| 20260501222535 | 55 | 358 | 5.0 | 11.0 | 0.00 | 0.07 | 0.03 | 28 | 983.4 |
| 20260501221434 | 56 | 317 | 1.0 | 9.0 | 0.00 | 0.08 | 0.03 | 31 | 983.3 |
| 20260501221430 | 55 | 333 | 4.0 | 11.0 | 0.00 | 0.07 | 0.03 | 31 | 983.4 |
| 20260501220433 | 53 | 320 | 2.0 | 4.0 | 0.00 | 0.08 | 0.03 | 33 | 983.5 |
| 20260501220429 | 55 | 127 | 1.0 | 4.0 | 0.00 | 0.08 | 0.03 | 31 | 983.4 |
| 20260501215429 | 53 | 314 | 3.0 | 8.0 | 0.00 | 0.08 | 0.03 | 30 | 983.4 |
| 20260501214935 | 54 | 23 | 1.0 | 6.0 | 0.00 | 0.08 | 0.03 | 34 | 983.7 |
| 20260501214929 | 53 | 355 | 2.0 | 8.0 | 0.00 | 0.08 | 0.03 | 29 | 983.5 |
| 20260501214430 | 55 | 22 | 1.0 | 7.0 | 0.00 | 0.08 | 0.03 | 33 | 983.5 |
| 20260501213431 | 53 | 332 | 0.0 | 3.0 | 0.00 | 0.08 | 0.03 | 34 | 983.7 |
| 20260501212929 | 53 | 245 | 0.0 | 2.0 | 0.00 | 0.09 | 0.03 | 37 | 983.7 |
| 20260501212431 | 53 | 147 | 1.0 | 5.0 | 0.00 | 0.09 | 0.03 | 35 | 983.8 |
| 20260501211930 | 55 | 338 | 1.0 | 5.0 | 0.00 | 0.09 | 0.03 | 33 | 983.8 |
| 20260501211435 | 55 | 314 | 0.0 | 6.0 | 0.00 | 0.09 | 0.03 | 35 | 984.0 |
| 20260501211430 | 55 | 354 | 0.0 | 2.0 | 0.00 | 0.09 | 0.03 | 35 | 983.8 |
| 20260501210431 | 54 | 321 | 1.0 | 6.0 | 0.00 | 0.10 | 0.03 | 36 | 984.0 |
| 20260501205931 | 54 | 1 | 1.0 | 4.0 | 0.00 | 0.10 | 0.03 | 35 | 984.0 |
| 20260501205431 | 55 | 343 | 1.0 | 4.0 | 0.00 | 0.10 | 0.03 | 36 | 984.0 |
| 20260501204935 | 53 | 356 | 1.0 | 5.0 | 0.00 | 0.10 | 0.03 | 36 | 984.0 |
| 20260501204930 | 54 | 275 | 1.0 | 4.0 | 0.00 | 0.10 | 0.03 | 37 | 984.0 |
| 20260501203930 | 52 | 318 | 1.0 | 5.0 | 0.00 | 0.10 | 0.03 | 36 | 984.0 |
| 20260501203431 | 53 | 321 | 1.0 | 4.0 | 0.00 | 0.10 | 0.03 | 34 | 984.1 |
| 20260501202931 | 53 | 323 | 1.0 | 4.0 | 0.00 | 0.10 | 0.03 | 37 | 984.1 |
| 20260501202431 | 53 | 126 | 0.0 | 4.0 | 0.00 | 0.10 | 0.03 | 36 | 984.1 |
| 20260501201935 | 53 | 305 | 2.0 | 6.0 | 0.00 | 0.10 | 0.03 | 36 | 984.3 |
| 20260501201931 | 53 | 297 | 1.0 | 6.0 | 0.00 | 0.10 | 0.03 | 36 | 984.1 |
| 20260501200931 | 54 | 301 | 2.0 | 6.0 | 0.00 | 0.10 | 0.03 | 36 | 984.3 |
| 20260501200430 | 53 | 81 | 2.0 | 6.0 | 0.00 | 0.10 | 0.03 | 35 | 984.3 |
| 20260501195930 | 54 | 66 | 2.0 | 6.0 | 0.00 | 0.10 | 0.03 | 36 | 984.4 |
| 20260501195430 | 53 | 209 | 1.0 | 6.0 | 0.00 | 0.10 | 0.03 | 39 | 984.3 |
| 20260501194930 | 53 | 210 | 1.0 | 5.0 | 0.00 | 0.10 | 0.03 | 39 | 984.4 |
| 20260501194435 | 53 | 146 | 1.0 | 3.0 | 0.00 | 0.11 | 0.03 | 43 | 984.3 |
| 20260501194430 | 54 | 24 | 0.0 | 2.0 | 0.00 | 0.10 | 0.03 | 36 | 984.3 |
| 20260501193430 | 51 | 137 | 1.0 | 4.0 | 0.00 | 0.11 | 0.03 | 39 | 984.4 |
| 20260501192931 | 50 | 312 | 1.0 | 6.0 | 0.00 | 0.11 | 0.03 | 38 | 984.4 |
| 20260501192429 | 51 | 326 | 2.0 | 6.0 | 0.00 | 0.11 | 0.03 | 37 | 984.5 |
| 20260501191929 | 52 | 325 | 1.0 | 5.0 | 0.00 | 0.12 | 0.03 | 37 | 984.4 |
| 20260501191429 | 54 | 342 | 0.0 | 4.0 | 0.00 | 0.12 | 0.03 | 40 | 984.4 |
| 20260501190928 | 52 | 353 | 0.0 | 4.0 | 0.00 | 0.12 | 0.03 | 43 | 984.5 |
| 20260501190427 | 51 | 40 | 1.0 | 4.0 | 0.00 | 0.12 | 0.03 | 44 | 984.5 |
| 20260501185928 | 50 | 200 | 1.0 | 4.0 | 0.00 | 0.13 | 0.03 | 43 | 984.6 |
| 20260501185431 | 49 | 343 | 1.0 | 6.0 | 0.00 | 0.14 | 0.03 | 44 | 984.7 |
| 20260501185427 | 50 | 8 | 1.0 | 5.0 | 0.00 | 0.13 | 0.03 | 41 | 984.6 |
| 20260501185033 | 49 | 293 | 1.0 | 5.0 | 0.00 | 0.15 | 0.03 | 43 | 984.7 |
| 20260501184537 | 49 | 320 | 1.0 | 8.0 | 0.00 | 0.15 | 0.03 | 41 | 984.6 |
| 20260501184427 | 49 | 328 | 1.0 | 6.0 | 0.00 | 0.14 | 0.03 | 42 | 984.7 |
| 20260501182927 | 50 | 340 | 0.0 | 8.0 | 0.00 | 0.16 | 0.03 | 40 | 984.7 |
| 20260501182427 | 50 | 220 | 0.0 | 2.0 | 0.00 | 0.16 | 0.03 | 42 | 984.7 |
| 20260501181927 | 50 | 319 | 1.0 | 5.0 | 0.00 | 0.16 | 0.03 | 42 | 984.7 |
| 20260501181427 | 49 | 300 | 1.0 | 5.0 | 0.00 | 0.17 | 0.03 | 41 | 984.8 |
| 20260501180927 | 49 | 308 | 1.0 | 5.0 | 0.00 | 0.17 | 0.03 | 45 | 984.8 |
| 20260501180428 | 49 | 15 | 0.0 | 5.0 | 0.00 | 0.18 | 0.03 | 41 | 984.8 |
| 20260501175927 | 49 | 334 | 1.0 | 5.0 | 0.00 | 0.18 | 0.03 | 41 | 985.0 |
| 20260501175432 | 49 | 239 | 0.0 | 3.0 | 0.00 | 0.19 | 0.03 | 46 | 985.0 |
| 20260501175427 | 49 | 326 | 1.0 | 5.0 | 0.00 | 0.18 | 0.03 | 43 | 985.0 |
| 20260501174427 | 48 | 174 | 0.0 | 2.0 | 0.00 | 0.19 | 0.03 | 47 | 985.0 |
| 20260501173931 | 47 | 325 | 1.0 | 3.0 | 0.00 | 0.20 | 0.03 | 45 | 985.1 |
| 20260501173927 | 47 | 342 | 1.0 | 3.0 | 0.00 | 0.19 | 0.03 | 44 | 985.1 |
| 20260501172927 | 47 | 319 | 1.0 | 4.0 | 0.00 | 0.20 | 0.03 | 46 | 985.1 |
| 20260501172427 | 47 | 203 | 1.0 | 4.0 | 0.00 | 0.21 | 0.03 | 44 | 985.2 |
| 20260501171928 | 48 | 311 | 0.0 | 3.0 | 0.00 | 0.21 | 0.03 | 44 | 985.1 |
| 20260501171432 | 48 | 228 | 0.0 | 3.0 | 0.00 | 0.22 | 0.03 | 46 | 985.2 |
| 20260501171427 | 49 | 319 | 0.0 | 3.0 | 0.00 | 0.21 | 0.03 | 46 | 985.2 |
| 20260501170427 | 47 | 259 | 0.0 | 2.0 | 0.00 | 0.22 | 0.03 | 50 | 985.1 |
| 20260501165927 | 46 | 315 | 1.0 | 3.0 | 0.00 | 0.22 | 0.03 | 50 | 985.1 |
| 20260501165426 | 46 | 4 | 1.0 | 4.0 | 0.00 | 0.23 | 0.03 | 50 | 985.1 |
| 20260501164925 | 46 | 349 | 1.0 | 4.0 | 0.00 | 0.23 | 0.03 | 52 | 985.1 |
| 20260501164425 | 46 | 336 | 0.0 | 4.0 | 0.00 | 0.24 | 0.03 | 50 | 985.1 |
| 20260501163925 | 46 | 110 | 1.0 | 5.0 | 0.00 | 0.24 | 0.03 | 56 | 985.2 |
| 20260501163425 | 46 | 180 | 1.0 | 5.0 | 0.00 | 0.24 | 0.03 | 56 | 985.1 |
| 20260501162925 | 45 | 254 | 0.0 | 1.0 | 0.00 | 0.25 | 0.03 | 61 | 985.1 |
| 20260501162424 | 44 | 134 | 0.0 | 3.0 | 0.00 | 0.25 | 0.03 | 60 | 985.1 |
| 20260501161925 | 44 | 231 | 0.0 | 3.0 | 0.01 | 0.25 | 0.03 | 58 | 985.1 |